Simultaneous Nadir Overpasses (SNOs) Predictions

Prediction of SNOs between GOES-17 and TERRA Satellite Orbit:

Table of predicted SNOs for the next 14.0 days since TLE Epoch: 8/10/2024
Index Date Time (GOES-17) GOES-17 Lat,Lon TERRA Lat,Lon Distance(km) Time Diff (sec)
1 08/11/2024 16:42:21 -0.00,-104.73 0.03,-105.01 31.81 80
2 08/13/2024 16:24:42 -0.01,-104.73 -0.83,-100.75 451.68 80
3 08/14/2024 04:47:22 0.00,-104.69 -0.18,-105.61 104.62 80
4 08/16/2024 04:27:02 0.00,-104.69 0.68,-101.35 378.63 80
5 08/16/2024 16:49:33 -0.00,-104.72 0.32,-106.18 166.36 80
6 08/18/2024 16:29:13 -0.01,-104.71 -0.60,-101.92 317.26 80
7 08/19/2024 04:51:52 0.00,-104.68 -0.45,-106.78 238.78 80
8 08/21/2024 04:31:31 0.01,-104.68 0.47,-102.52 245.43 80
9 08/21/2024 16:54:00 -0.01,-104.71 0.55,-107.34 299.26 80
10 08/23/2024 16:33:38 -0.01,-104.71 -0.37,-103.07 185.74 80
